Voltar ao catálogo

STARLINK-38047

AtivoComunicaçõesSSO
NORAD 69745·PAYLOAD·🇺🇸 United States

Lançado Jul 2, 2026 de Vandenberg Space Force Base

Loading…

Próximas Passagens (próximas 24 horas)

TLE

AtualizadoSource: CelesTrak SupGP

Época: Sep 14, 2026, 21:21 UTC

1 69745C 26150G   26257.89006944  .00071709  00000+0  22269-2 0  2570
2 69745  97.2844  96.9284 0001845  92.6804  73.8399 15.33389852    19

Acompanhe STARLINK-38047 em tempo real com AllMySat

Download on the App Store